Weather History for RJBB - August, 2014

Change the Weather History Date:

Friday, August 8, 2014

  Actual Average Record
Temperature  
Mean Temperature 81 °F -  
Max Temperature 91 °F 85 °F 95 °F (2002)
Min Temperature 71 °F 74 °F 71 °F (2014)
Cooling Degree Days 16    
Growing Degree Days 31 (Base 50)    
Moisture  
Dew Point 72 °F    
Average Humidity 76    
Maximum Humidity 94    
Minimum Humidity 49    
Precipitation  
Precipitation 0.00 in - - ()
Sea Level Pressure  
Sea Level Pressure 29.72 in    
Wind  
Wind Speed 10 mph ()    
Max Wind Speed 32 mph    
Max Gust Speed 38 mph    
Visibility 6.0 miles    
Events Rain , Thunderstorm    
Averages and records for this station are not official NWS values.
T = Trace of Precipitation, MM = Missing Value Source: Averaged Metar Reports

Daily Weather History Graph

Daily Weather History Graph

Search for Another Location

Airport or City:

Trip Planner

Search our weather history database for the weather conditions in past years. The results will help you decide how hot, cold, wet, or windy it might be!

Date:

Astronomy

Aug. 08, 2014 Rise Set
Actual Time 5:14 AM JST 6:54 PM JST
Civil Twilight 4:47 AM JST 7:21 PM JST
Nautical Twilight 4:14 AM JST 7:54 PM JST
Astronomical Twilight 3:40 AM JST 8:28 PM JST
Moon 4:30 PM JST (8/8) 2:09 AM JST (8/8)
Length of Visible Light 14h 34m
Length of Day
13h 40m
Waxing Gibbous, 90% of the Moon is Illuminated
Aug 8
Waxing Gibbous
Aug 11
Full
Aug 17
Last Quarter
Aug 25
New
Sep 2
First Quarter

Hourly Weather History & Observations

Time (JST) Temp. Heat Index Dew Point Humidity Pressure Visibility Wind Dir Wind Speed Gust Speed Precip Events Conditions
12:00 AM 80.6 °F 86.2 °F 75.2 °F 84% 29.74 in 6.2 mi SSE 2.3 mph - N/A Rain Light Rain Showers
12:30 AM 78.8 °F - 75.2 °F 89% 29.74 in 6.2 mi SSE 3.5 mph - N/A   Mostly Cloudy
1:00 AM 78.8 °F - 75.2 °F 89% 29.74 in 6.2 mi East 1.2 mph - N/A   Mostly Cloudy
1:30 AM 80.6 °F 85.4 °F 73.4 °F 79% 29.74 in 6.2 mi Variable 2.3 mph - N/A   Mostly Cloudy
2:00 AM 80.6 °F 86.2 °F 75.2 °F 84% 29.74 in 6.2 mi NE 3.5 mph - N/A   Mostly Cloudy
2:30 AM 80.6 °F 86.2 °F 75.2 °F 84% 29.74 in 6.2 mi ENE 5.8 mph - N/A   Mostly Cloudy
3:00 AM 80.6 °F 86.2 °F 75.2 °F 84% 29.74 in 6.2 mi NE 5.8 mph - N/A Rain Light Rain Showers
3:30 AM 80.6 °F 85.4 °F 73.4 °F 79% 29.71 in 6.2 mi Variable 1.2 mph - N/A   Mostly Cloudy
4:00 AM 78.8 °F - 75.2 °F 89% 29.71 in 6.2 mi Variable 2.3 mph - N/A   Mostly Cloudy
4:30 AM 78.8 °F - 73.4 °F 83% 29.71 in 6.2 mi ENE 4.6 mph - N/A   Mostly Cloudy
5:00 AM 78.8 °F - 75.2 °F 89% 29.71 in 6.2 mi East 3.5 mph - N/A   Partly Cloudy
5:30 AM 78.8 °F - 75.2 °F 89% 29.71 in 6.2 mi SSE 2.3 mph - N/A   Partly Cloudy
6:00 AM 80.6 °F 85.4 °F 73.4 °F 79% 29.71 in 6.2 mi Variable 2.3 mph - N/A   Partly Cloudy
6:30 AM 80.6 °F 85.4 °F 73.4 °F 79% 29.71 in 6.2 mi ENE 3.5 mph - N/A   Partly Cloudy
7:00 AM 82.4 °F 88.2 °F 73.4 °F 74% 29.71 in 6.2 mi ENE 3.5 mph - N/A   Partly Cloudy
7:30 AM 82.4 °F 88.2 °F 73.4 °F 74% 29.74 in 6.2 mi ENE 5.8 mph - N/A   Partly Cloudy
8:00 AM 84.2 °F 90.9 °F 73.4 °F 70% 29.74 in 6.2 mi NE 6.9 mph - N/A   Partly Cloudy
8:30 AM 84.2 °F 90.9 °F 73.4 °F 70% 29.74 in 6.2 mi NNE 11.5 mph - N/A   Partly Cloudy
9:00 AM 84.2 °F 90.9 °F 73.4 °F 70% 29.74 in 6.2 mi NNE 13.8 mph - N/A   Partly Cloudy
9:30 AM 87.8 °F 95.6 °F 73.4 °F 62% 29.74 in 6.2 mi NNE 12.7 mph - N/A   Scattered Clouds
10:00 AM 87.8 °F 95.6 °F 73.4 °F 62% 29.74 in 6.2 mi NNE 12.7 mph - N/A   Scattered Clouds
10:30 AM 89.6 °F 98.2 °F 73.4 °F 59% 29.71 in 6.2 mi NNE 12.7 mph - N/A   Mostly Cloudy
11:00 AM 87.8 °F 93.8 °F 71.6 °F 58% 29.74 in 6.2 mi NNE 15.0 mph - N/A   Scattered Clouds
11:30 AM 87.8 °F 93.8 °F 71.6 °F 58% 29.71 in 6.2 mi NNE 12.7 mph - N/A   Mostly Cloudy
11:49 AM 91.4 °F 100.1 °F 73.4 °F 55% 29.71 in 6.2 mi NNE 12.7 mph - N/A   Scattered Clouds
12:00 PM 91.4 °F 98.4 °F 71.6 °F 52% 29.71 in 6.2 mi NNE 15.0 mph - N/A   Scattered Clouds
12:30 PM 91.4 °F 96.8 °F 69.8 °F 49% 29.71 in 6.2 mi NNE 12.7 mph - N/A   Mostly Cloudy
1:00 PM 89.6 °F 96.2 °F 71.6 °F 55% 29.71 in 6.2 mi NNE 12.7 mph - N/A   Mostly Cloudy
1:30 PM 87.8 °F 93.8 °F 71.6 °F 58% 29.68 in 6.2 mi NNE 11.5 mph - N/A   Mostly Cloudy
2:00 PM 89.6 °F 96.2 °F 71.6 °F 55% 29.68 in 6.2 mi NE 9.2 mph - N/A   Mostly Cloudy
2:30 PM 89.6 °F 94.7 °F 69.8 °F 52% 29.68 in 6.2 mi NE 10.4 mph - N/A   Mostly Cloudy
3:00 PM 89.6 °F 94.7 °F 69.8 °F 52% 29.68 in 6.2 mi NE 11.5 mph - N/A   Mostly Cloudy
3:30 PM 87.8 °F 95.6 °F 73.4 °F 62% 29.68 in 6.2 mi NNE 13.8 mph - N/A Rain Light Rain Showers
4:00 PM 82.4 °F 88.2 °F 73.4 °F 74% 29.68 in 6.2 mi NNE 24.2 mph - N/A Rain Rain Showers
4:08 PM 80.6 °F 85.4 °F 73.4 °F 79% 29.68 in 6.2 mi NNE 26.5 mph 38.0 mph N/A Rain Rain Showers
4:30 PM 78.8 °F - 71.6 °F 78% 29.68 in 6.2 mi NNE 29.9 mph - N/A Rain Light Rain Showers
5:00 PM 78.8 °F - 69.8 °F 74% 29.68 in 6.2 mi NNE 32.2 mph - N/A   Mostly Cloudy
5:30 PM 77.0 °F - 69.8 °F 78% 29.68 in 6.2 mi NNE 32.2 mph - N/A Rain Light Rain Showers
6:00 PM 77.0 °F - 68.0 °F 74% 29.71 in 6.2 mi NNE 31.1 mph - N/A Rain Light Rain Showers
6:19 PM 75.2 °F - 69.8 °F 83% 29.74 in 5.0 mi NE 26.5 mph 38.0 mph N/A Rain Rain Showers
6:30 PM 75.2 °F - 69.8 °F 83% 29.74 in 5.0 mi NE 23.0 mph - N/A Rain Rain Showers
7:00 PM 73.4 °F - 71.6 °F 94% 29.77 in 4.3 mi NE 19.6 mph - N/A Rain Rain Showers
7:30 PM 73.4 °F - 69.8 °F 88% 29.77 in 4.3 mi NE 24.2 mph - N/A Rain Rain Showers
8:00 PM 73.4 °F - 69.8 °F 88% 29.77 in 4.3 mi NE 24.2 mph - N/A Rain Rain Showers
8:10 PM 73.4 °F - 69.8 °F 88% 29.77 in 6.2 mi NE 25.3 mph 38.0 mph N/A Rain Rain Showers
8:30 PM 71.6 °F - 69.8 °F 94% 29.77 in 6.2 mi NE 28.8 mph - N/A Rain Light Rain Showers
8:38 PM 71.6 °F - 69.8 °F 94% 29.77 in 6.2 mi NE 25.3 mph - N/A Rain Rain Showers
9:00 PM 71.6 °F - 69.8 °F 94% 29.77 in 6.2 mi NE 20.7 mph - N/A Rain Rain Showers
9:30 PM 71.6 °F - 69.8 °F 94% 29.77 in 6.2 mi NE 21.9 mph - N/A Rain Light Rain Showers
10:00 PM 71.6 °F - 69.8 °F 94% 29.74 in 6.2 mi NE 20.7 mph - N/A Rain Light Rain Showers
10:30 PM 73.4 °F - 69.8 °F 88% 29.74 in 6.2 mi ENE 23.0 mph - N/A Rain , Thunderstorm Light Thunderstorms and Rain
10:40 PM 73.4 °F - 69.8 °F 88% 29.74 in 6.2 mi ENE 23.0 mph - N/A Rain Light Rain Showers
11:00 PM 73.4 °F - 69.8 °F 88% 29.74 in 6.2 mi ENE 24.2 mph - N/A Rain Light Rain Showers
11:30 PM 73.4 °F - 69.8 °F 88% 29.71 in 6.2 mi ENE 21.9 mph - N/A   Mostly Cloudy